This demonstration page uses our WeatherBlox Daily Observations layout. Learn more.

Left ArrowRight Arrow

38.83388, -104.82136

Hourly Observations for April 6, 2022

Temp ( °F °C ) Dew Point ( °F °C ) Humidity (%) Winds ( mph kmh ) Pressure ( in mb ) Visibility ( mi km ) Precip ( " mm )
12:58 am 00:58 undefined 32 0 13 -10.5 45 45 ESE 12 19 29.58 1002 N/A 0.00 0.00
1:58 am 01:58 undefined 29 -1.5 11 -11.6 46 46 W 9 15 29.57 1001 10 16 0.00 0.00
2:58 am 02:58 Mostly Clear 30 -1 12 -11.2 46 46 NW 3 6 29.59 1002 10 16 0.00 0.00
3:58 am 03:58 undefined 28 -2 7 -14.1 39 39 Calm 29.60 1002 10 16 0.00 0.00
4:58 am 04:58 undefined 29 -1.9 2 -16.8 31 31 WNW 6 9 29.65 1004 10 16 0.00 0.00
5:58 am 05:58 Clear 28 -2 0 -17.7 29 29 Calm N/A 10 16 0.00 0.00
6:58 am 06:58 Sunny 29 -1.9 0 -18 28 28 WSW 9 15 N/A 10 16 0.00 0.00
7:58 am 07:58 Sunny 30 -0.9 0 -18 26 26 N 5 7 N/A 10 16 0.00 0.00
8:49 am 08:49 Sunny 34 1 -2 -19 21 21 NW 16 26 N/A 10 16 0.00 0.00
8:58 am 08:58 Sunny 33 0.8 -5 -20.3 19 19 NW 14 22 N/A 10 16 0.00 0.00
9:58 am 09:58 Sunny 35 1.5 -10 -23.2 14 14 NW 28 44 29.91 1013 10 16 0.00 0.00
10:58 am 10:58 Sunny 37 2.9 -9 -22.9 13 13 WNW 20 31 29.94 1014 10 16 0.00 0.00
11:03 am 11:03 Sunny 36 2 -11 -24 13 13 W 20 31 29.94 1014 10 16 0.00 0.00
11:08 am 11:08 Sunny 36 2 -11 -24 13 13 WNW 18 30 29.94 1014 10 16 0.00 0.00
11:58 am 11:58 Sunny 38 3.2 -14 -25.6 10 10 WNW 21 33 29.95 1014 10 16 0.00 0.00
12:39 pm 12:39 Sunny 39 4 -13 -25 10 10 W 15 24 29.96 1015 10 16 0.00 0.00
12:58 pm 12:58 Sunny 40 4.2 -11 -23.7 11 11 WNW 18 30 29.96 1015 10 16 0.00 0.00
1:58 pm 13:58 Sunny 41 5.2 -13 -25.2 9 9 NW 16 26 29.97 1015 10 16 0.00 0.00
2:27 pm 14:27 Sunny 41 5 -9 -23 11 11 NNW 17 28 29.98 1015 10 16 0.00 0.00
2:56 pm 14:56 Sunny 41 5 -11 -24 10 10 W 16 26 29.98 1015 10 16 0.00 0.00
2:58 pm 14:58 Sunny 41 5.2 -11 -24 10 10 WNW 14 22 29.98 1015 10 16 0.00 0.00
3:42 pm 15:42 Sunny 43 6 -13 -25 9 9 NW 12 19 29.99 1016 10 16 0.00 0.00
3:58 pm 15:58 Sunny 42 5.4 -11 -23.9 10 10 WNW 16 26 29.99 1016 9 14 0.00 0.00
4:05 pm 16:05 Sunny 41 5 -11 -24 10 10 W 15 24 29.98 1015 9 14 0.00 0.00
4:18 pm 16:18 Sunny 41 5 -11 -24 10 10 NW 13 20 29.98 1015 10 16 0.00 0.00
4:58 pm 16:58 Sunny 40 4.6 -10 -23.4 11 11 WNW 16 26 29.94 1014 10 16 0.00 0.00
4:59 pm 16:59 Mostly Sunny 41 5 -9 -23 11 11 NNW 17 28 29.94 1014 10 16 0.00 0.00
5:24 pm 17:24 Mostly Sunny 39 4 -9 -23 12 12 NW 14 22 29.96 1015 10 16 0.00 0.00
5:57 pm 17:57 Mostly Sunny 39 4 -8 -22 13 13 W 14 22 29.97 1015 10 16 0.00 0.00
5:58 pm 17:58 Mostly Sunny 39 3.7 -8 -22.2 13 13 W 14 22 29.97 1015 10 16 0.00 0.00
6:58 pm 18:58 Partly Cloudy 38 3.1 -5 -20.3 16 16 WNW 12 19 29.99 1016 10 16 0.00 0.00
7:58 pm 19:58 Clear 36 2 -5 -20.5 17 17 W 9 15 30.01 1016 10 16 0.00 0.00
8:58 pm 20:58 Clear 34 1.3 -4 -19.8 19 19 W 8 13 30.03 1017 10 16 0.00 0.00
9:58 pm 21:58 Clear 34 1.3 -3 -19.2 20 20 W 7 11 30.04 1017 10 16 0.00 0.00
10:58 pm 22:58 undefined 34 0.9 -3 -19.6 20 20 WNW 7 11 30.04 1017 10 16 0.00 0.00
11:58 pm 23:58 Mostly Clear 33 0.8 -3 -19.7 20 20 WNW 7 11 30.04 1017 10 16 0.00 0.00

Powered by AerisWeather